Location: Eboldshausen
(51.7766°N, 10.0050°E)
Time: 17:14:48
(UTC+00:00)

ATLAS CENTAUR R/B - Pass Details

Date: 15 November 2025
Orbit: 343 x 422 km, 64.6° (Epoch: 09 December)

Event Time Altitude Azimuth Distance (km) Brightness Sun altitude
Rises 16:58:17 0° 249° (WSW) 2,431 6.5 -13.6°
Reaches altitude 10° 17:00:32 10° 260° (W) 1,568 5.1 -13.9°
Maximum altitude 17:03:41 31° 324° (NW) 813 2.4 -14.4°
Enters shadow 17:06:09 14° 22° (NNE) 1,328 3.0 -14.8°
